Regional Weather Roundup
Issued by NWS

Home | Current Version | Previous Version | Text Only | Print | Product List | Glossary Off
Versions: 1 2 3 4 5 6 7 8 9 10 11 12 13 14 15 16 17 18 19 20 21 22 23 24 25 26 27 28 29 30 31 32 33 34 35 36 37 38 39 40 41 42 43 44 45 46 47 48 49 50

000
ASUS43 KIND 031959
RWRIN

WEATHER ROUNDUP FOR INDIANA
NATIONAL WEATHER SERVICE INDIANAPOLIS IN
400 PM EDT WED JUN 03 2015

NOTE: "FAIR" INDICATES FEW OR NO CLOUDS BELOW 12,000 FEET WITH NO
SIGNIFICANT WEATHER AND/OR OBSTRUCTIONS TO VISIBILITY.

* - STATION DOES NOT REPORT WEATHER SUCH AS PRECIPITATION OR FOG.

+ - STATION NOT QUALITY CONTROLLED BY THE NATIONAL WEATHER SERVICE.
    USE DATA WITH CAUTION...ESPECIALLY DEWPOINT AND RELATIVE
    HUMIDITY OBSERVATIONS.

INZ001>003-010>013-019-020-032100-
NORTHWEST INDIANA

CITY           SKY/WX    TMP DP  RH WIND       PRES   REMARKS
MONTICELLO +   SUNNY     73  57  56 S8        30.03F
RENSSELAER +   SUNNY     73  54  49 S5        30.04S

$$

LMZ046-743>745-032100-
SOUTHERN LAKE MICHIGAN

STATION/POSITION TIME  TEMP    WIND        PRES    WAVE
                       AIR SEA DIR/SP/G            HT
                 (UTC) (F)     (DEG/KT/KT) (MB)    (FT)
BURNS HARBOR     1900           30/ 10/ 12 1017.9S
MICHIGAN CITY    1900   59      10/  6/  8   N/A
5NW MICH CITY    1900   58 57   20/  6/  8   N/A     1

$$

INZ004-005-014>016-021>024-032100-
NORTH CENTRAL INDIANA

CITY           SKY/WX    TMP DP  RH WIND       PRES   REMARKS
ELKHART        PTSUNNY   73  55  53 SE12      30.05F
GOSHEN         CLOUDY    71  56  58 SE6       30.05F
SOUTH BEND     SUNNY     73  53  49 VRB5      30.05F

$$

INZ006>009-017-018-025>027-032100-
NORTHEAST INDIANA

CITY           SKY/WX    TMP DP  RH WIND       PRES   REMARKS
ANGOLA *+      CLOUDY    72  63  73 SE6       30.06F
FORT WAYNE     CLOUDY    70  59  68 SE6       30.06F

$$

INZ028-029-035-036-043>045-051>053-032100-
WEST CENTRAL INDIANA

CITY           SKY/WX    TMP DP  RH WIND       PRES   REMARKS
CRAWFORDSVL +  SUNNY     69  50  50 CALM      30.04F HAZE
GREENCASTLE +  MOSUNNY   70  52  52 SE6       30.05F
LAFAYETTE      SUNNY     72  54  53 VRB5      30.03F
TERRE HAUTE    MOSUNNY   70  56  61 SE6       30.04F

$$

INZ030>032-037>040-046>048-054>057-064-065-032100-
CENTRAL INDIANA

CITY           SKY/WX    TMP DP  RH WIND       PRES   REMARKS
ANDERSON       CLOUDY    68  52  56 SE6       30.06F
GREENWOOD *+   CLOUDY    64  52  63 S5        30.07F
INDIANAPOLIS   PTSUNNY   69  54  58 E9        30.04S
-EAGLE CREEK   CLOUDY    69  54  58 VRB6      30.04F
KOKOMO *+      CLOUDY    70  57  64 SE12      30.05F
MT COMFORT *+  PTSUNNY   70  46  43 CALM      30.06F
SHELBYVILLE    CLOUDY    70  56  61 W5        30.05F

$$

INZ033-034-041-042-049-050-058-059-032100-
EAST CENTRAL INDIANA

CITY           SKY/WX    TMP DP  RH WIND       PRES   REMARKS
MUNCIE         CLOUDY    68  57  68 SE7       30.05F

$$

INZ060-061-067>069-081>083-085>088-032100-
SOUTHWEST INDIANA

CITY           SKY/WX    TMP DP  RH WIND       PRES   REMARKS
EVANSVILLE     MOSUNNY   73  56  54 CALM      30.03F
HUNTINGBURG *+ CLOUDY    64  55  72 NE5       30.05F

$$

INZ062-063-066-070>080-084-089>092-032100-
SOUTH CENTRAL AND SOUTHEAST INDIANA

CITY           SKY/WX    TMP DP  RH WIND       PRES   REMARKS
BLOOMINGTON    CLOUDY    65  55  70 E6        30.06F
MADISON *+     CLOUDY    68  54  60 E3        30.07F
SEYMOUR +      CLOUDY    73  55  53 E5        30.04F

$$




USA.gov is the U.S. government's official web portal to all federal, state and local government web resources and services.